Home > Weather > Feldbach > Past weeks

Flag for Austria Past Weather in Feldbach, Styria, Austria — Yesterday and Last 2 Weeks

Now
81 °F

Scattered clouds.


Feels Like: 84 °F
Forecast: 67 / 79 °F
Wind: 3 mph from Southeast

Location: Graz-Thalerhof-Flughafen

Current Time: Jul 24, 2016 at 2:47:36 PM

Latest Report: Jul 24, 2016 at 2:00 PM


Visibility: 15 mi

Pressure: 29.99 "Hg

Humidity: 64%

Dew Point: 68 °F

Location of FeldbachLocation

Past Weather in Feldbach — Graph

°F

Feldbach Temperature Yesterday

Maximum temperature yesterday: 82 °F (at 5:00 PM)
Minimum temperature yesterday: 62 °F (at 5:00 AM)
Average temperature yesterday: 73 °F

High & Low Weather Summary for the Past Weeks

 TemperatureHumidityPressure
High87 °F (Jul 11, 3:00 PM)98% (Jul 20, 6:00 AM)30.17 "Hg (Jul 20, 6:00 AM)
Low50 °F (Jul 15, 6:00 AM)37% (Jul 14, 4:00 PM)29.75 "Hg (Jul 14, 2:00 AM)
Average70 °F71%29.99 "Hg
* Reported Jul 9 1:00 PM — Jul 24 1:00 PM, Feldbach, Weather by CustomWeather, © 2016

Note: Actual official high and low records may vary slightly from our data, if they occured in-between our weather recording intervals... More about our weather records

Advertising

Feldbach Weather History for the Previous 24 Hours

Scroll right to see more
 ConditionsComfort  
Time TempWeatherWind HumidityBarometerVisibility
1:00 PM
Sun, Jul 24
82 °FScattered clouds.N/A63%29.99 "Hg5 mi
12:00 PM81 °FScattered clouds.N/A67%29.99 "Hg19 mi
11:00 AM78 °FScattered clouds.N/A70%30.01 "Hg6 mi
10:00 AM80 °FPartly sunny.N/A72%30.00 "Hg12 mi
9:00 AM77 °FPartly sunny.N/A75%30.00 "Hg19 mi
8:00 AM73 °FScattered clouds.N/A84%30.00 "Hg10 mi
7:00 AM69 °FPartly sunny.N/A94%30.00 "Hg6 mi
6:00 AM67 °FOvercast.N/A96%30.00 "Hg4 mi
5:00 AM68 °FMild.N/A95%29.99 "Hg5 mi
4:00 AM68 °FPassing clouds.N/A94%30.00 "Hg7 mi
3:00 AM70 °FMild.N/A90%29.99 "Hg10 mi
2:00 AM69 °FMild.N/A86%29.99 "Hg17 mi
1:00 AM70 °FPassing clouds.3 mph87%29.99 "Hg14 mi
12:00 AM72 °FPassing clouds.N/A72%29.98 "Hg22 mi
9:00 PM
Sat, Jul 23
78 °FPassing clouds.N/A73%29.96 "Hg22 mi
8:00 PM79 °FRain showers. Scattered clouds.N/A67%29.94 "Hg10 mi
7:00 PM81 °FPassing clouds.N/A62%29.94 "Hg2 mi
6:00 PM82 °FPassing clouds.N/A57%29.94 "Hg22 mi
5:00 PM82 °FPassing clouds.3 mph57%29.95 "Hg22 mi
4:00 PM82 °FPassing clouds.N/A55%29.96 "Hg19 mi
3:00 PM82 °FPassing clouds.N/A58%29.97 "Hg16 mi
2:00 PM81 °FPassing clouds.N/A60%29.98 "Hg9 mi
Weather by CustomWeather, © 2016

See weather overviewHow to use our weather pages